• Join FlightAware (Why Join?)
  • Login
  • US Flag GB Flag 
16:28 EDT


 

Airport Tracker/Info


-or-


 

Live Flight TrackerFlight Track Log ✈ N27XP ✈ 17-Jun-2013 ✈ KOMA - KRDU

Flight Track Log - Related Links

Times and Time Zones

All times are in EDT time to prevent confusion due to time zone crossing. See the N27XP flight status page for this flight to view local times or setup timezone preferences in your user account.

Time Position Orientation Groundspeed Altitude Reporting Facility
EDT Latitude Longitude Course Direction KTS MPH feet Rate Location/Type
07:55 41.3169 -95.9086 357° North 168 193 1,700  Level Minneapolis Center
07:56 41.3475 -95.9106 357° North 185 213 3,200 1,980 Climbing Minneapolis Center
07:57 41.3667 -95.8444 69° East 213 245 5,100 1,860 Climbing Minneapolis Center
07:58 41.3478 -95.7514 105° East 249 287 7,000 1,980 Climbing Minneapolis Center
07:59 41.3275 -95.6503 105° East 274 315 9,200 1,860 Climbing Minneapolis Center
08:00 41.3039 -95.5381 106° East 305 351 10,800 1,560 Climbing Minneapolis Center
08:01 41.2786 -95.4147 105° East 334 384 12,400 1,560 Climbing Minneapolis Center
08:02 41.2522 -95.2894 106° East 349 402 14,000 1,680 Climbing Minneapolis Center
08:03 41.2194 -95.1356 106° East 358 412 15,900 1,500 Climbing Minneapolis Center
08:04 41.1914 -95.0050 106° East 364 419 17,100 1,080 Climbing Minneapolis Center
08:05 41.1636 -94.8706 105° East 374 430 18,200 1,080 Climbing Minneapolis Center
08:06 41.1308 -94.7361 108° East 381 438 19,400 1,200 Climbing Minneapolis Center
08:07 41.1028 -94.6000 105° East 381 438 20,700 1,320 Climbing Minneapolis Center
08:08 41.0750 -94.4547 104° East 383 441 22,200 1,260 Climbing Minneapolis Center
08:09 41.0442 -94.3164 106° East 391 450 23,400 1,080 Climbing Minneapolis Center
08:10 41.0122 -94.1750 107° East 399 459 24,400 840 Climbing Minneapolis Center
08:11 40.9811 -94.0300 106° East 409 471 25,200 780 Climbing Minneapolis Center
08:12 40.9469 -93.8808 107° East 421 484 26,000 900 Climbing Minneapolis Center
08:13 40.9142 -93.7292 106° East 429 494 27,100 1,020 Climbing Minneapolis Center
08:14 40.8814 -93.5767 106° East 433 498 28,100 960 Climbing Minneapolis Center
08:15 40.8392 -93.3944 107° East 435 501 29,100 900 Climbing Minneapolis Center
08:16 40.8311 -93.3631 109° East 435 501 29,300 660 Climbing Chicago Center
08:17 40.7972 -93.2072 106° East 442 509 30,000 660 Climbing Chicago Center
08:18 40.7608 -93.0475 107° East 453 521 30,700 720 Climbing Chicago Center
08:19 40.7239 -92.8881 107° East 457 526 31,500 840 Climbing Chicago Center
08:20 40.6789 -92.6958 107° East 457 526 32,500 840 Climbing Chicago Center
08:21 40.6417 -92.5356 107° East 457 526 33,300 600 Climbing Chicago Center
08:22 40.6031 -92.3742 107° East 460 529 33,800 540 Climbing Chicago Center
08:22 40.5794 -92.2744 107° East 465 535 34,200 600 Climbing Kansas City Center
08:24 40.5392 -92.1086 108° East 473 544 34,800 480 Climbing Kansas City Center
08:24 40.5233 -92.0436 108° East 475 547 35,000 420 Climbing Chicago Center
08:25 40.4825 -91.8761 108° East 481 554 35,500 480 Climbing Chicago Center
08:26 40.4569 -91.7747 108° East 483 556 35,800 480 Climbing Kansas City Center
08:27 40.4156 -91.6064 108° East 486 559 36,300 480 Climbing Kansas City Center
08:28 40.3739 -91.4381 108° East 488 562 36,800 300 Climbing Kansas City Center
08:29 40.3342 -91.2753 108° East 491 565 37,000 60 Climbing Kansas City Center
08:30 40.2903 -91.0958 108° East 497 572 37,000  Level Kansas City Center
08:31 40.2375 -90.8925 109° East 506 582 37,000  Level Kansas City Center
08:31 40.2097 -90.7878 109° East 511 588 37,000  Level Chicago Center
08:32 40.1644 -90.6069 108° East 511 588 37,000  Level Chicago Center
08:33 40.1492 -90.5433 107° East 509 586 37,000  Level Kansas City Center
08:34 40.1033 -90.3697 109° East 508 585 37,000  Level Kansas City Center
08:35 40.0581 -90.1964 109° East 508 585 37,000  Level Kansas City Center
08:36 40.0133 -90.0231 109° East 507 583 37,000  Level Kansas City Center
08:37 39.9669 -89.8486 109° East 511 588 37,000  Level Kansas City Center
08:38 39.9214 -89.6767 109° East 509 586 37,000  Level Kansas City Center
08:39 39.8650 -89.4675 109° East 511 588 37,000  Level Kansas City Center
08:40 39.8194 -89.2964 109° East 506 582 37,000  Level Kansas City Center
08:41 39.7717 -89.1242 110° East 506 582 37,000  Level Kansas City Center
08:42 39.7244 -88.9522 110° East 507 583 37,000  Level Kansas City Center
08:43 39.6769 -88.7778 109° East 509 586 37,000  Level Kansas City Center
08:44 39.6283 -88.6042 110° East 512 589 37,000  Level Kansas City Center
08:45 39.5797 -88.4292 110° East 509 586 37,000  Level Kansas City Center
08:46 39.5331 -88.2514 109° East 514 592 37,000  Level Kansas City Center
08:47 39.4744 -88.0428 110° East 512 589 37,000  Level Kansas City Center
08:47 39.4572 -87.9964 116° Southeast 510 587 37,000  Level Indianapolis Center
08:48 39.4083 -87.8247 110° East 511 588 37,000  Level Indianapolis Center
08:49 39.3536 -87.6317 110° East 510 587 37,000  Level Indianapolis Center
08:51 39.3011 -87.4503 110° East 507 583 37,000  Level Indianapolis Center
08:52 39.2511 -87.2800 111° Southeast 510 587 37,000  Level Indianapolis Center
08:53 39.2017 -87.1111 111° Southeast 508 585 37,000  Level Indianapolis Center
08:54 39.1525 -86.9414 110° East 508 585 37,000  Level Indianapolis Center
08:55 39.1031 -86.7750 111° Southeast 505 581 37,000  Level Indianapolis Center
08:56 39.0419 -86.5725 111° Southeast 507 583 37,000  Level Indianapolis Center
08:57 38.9911 -86.4053 111° Southeast 506 582 37,000  Level Indianapolis Center
08:58 38.9414 -86.2381 111° Southeast 506 582 37,000  Level Indianapolis Center
08:59 38.8867 -86.0611 112° Southeast 506 582 37,000  Level Indianapolis Center
09:00 38.8364 -85.8944 111° Southeast 500 575 37,000  Level Indianapolis Center
09:01 38.7886 -85.7400 112° Southeast 504 580 37,000  Level Indianapolis Center
09:02 38.7264 -85.5411 112° Southeast 505 581 37,000  Level Indianapolis Center
09:03 38.6747 -85.3736 112° Southeast 508 585 37,000  Level Indianapolis Center
09:04 38.6214 -85.2025 112° Southeast 510 587 37,000  Level Indianapolis Center
09:05 38.5667 -85.0339 112° Southeast 511 588 37,000  Level Indianapolis Center
09:06 38.5136 -84.8650 112° Southeast 513 590 37,000  Level Indianapolis Center
09:07 38.4583 -84.6978 113° Southeast 512 589 37,000  Level Indianapolis Center
09:08 38.3964 -84.5014 112° Southeast 511 588 37,000  Level Indianapolis Center
09:09 38.3444 -84.3358 112° Southeast 504 580 37,000  Level Indianapolis Center
09:10 38.2933 -84.1725 112° Southeast 499 574 37,000  Level Indianapolis Center
09:11 38.2389 -84.0139 114° Southeast 491 565 37,000  Level Indianapolis Center
09:12 38.1853 -83.8547 113° Southeast 489 563 37,000  Level Indianapolis Center
09:13 38.1325 -83.6961 113° Southeast 486 559 37,000  Level Indianapolis Center
09:14 38.0694 -83.5083 113° Southeast 489 563 37,000  Level Indianapolis Center
09:15 38.0172 -83.3525 113° Southeast 480 552 37,000  Level Indianapolis Center
09:16 37.9650 -83.1953 113° Southeast 481 554 37,000  Level Indianapolis Center
09:17 37.9114 -83.0386 113° Southeast 481 554 37,000  Level Indianapolis Center
09:18 37.8592 -82.8833 113° Southeast 479 551 37,000  Level Indianapolis Center
09:19 37.8061 -82.7300 114° Southeast 476 548 37,000  Level Indianapolis Center
09:20 37.7444 -82.5503 113° Southeast 475 547 37,000  Level Indianapolis Center
09:21 37.6892 -82.3933 114° Southeast 485 558 37,000  Level Indianapolis Center
09:23 37.6425 -82.2381 111° Southeast 473 544 37,000  Level Indianapolis Center
09:24 37.6239 -82.0747 98° East 467 537 37,000  Level Indianapolis Center
09:25 37.6031 -81.9086 99° East 475 547 37,000 -60 Level Indianapolis Center
09:26 37.5808 -81.7433 100° East 476 548 36,900 -1,440 Descending Indianapolis Center
09:27 37.5550 -81.5519 100° East 473 544 34,100 -2,040 Descending Indianapolis Center
09:28 37.5339 -81.4050 100° East 467 537 32,700 -1,440 Descending Indianapolis Center
09:29 37.5108 -81.2414 100° East 483 556 31,200 -1,560 Descending Indianapolis Center
09:30 37.4842 -81.0428 100° East 493 567 29,500 -1,080 Descending Indianapolis Center
09:31 37.4617 -80.8794 100° East 489 563 29,000 -300 Descending Indianapolis Center
09:32 37.4369 -80.7167 101° East 489 563 29,000 -480 Level Indianapolis Center
09:33 37.4086 -80.5172 100° East 495 570 28,100 -840 Descending Indianapolis Center
09:33 37.4000 -80.4781 105° East 488 562 27,900 -1,080 Descending Washington Center
09:34 37.3742 -80.2908 100° East 493 567 26,700 -960 Descending Washington Center
09:35 37.3453 -80.1192 102° East 493 567 25,800 -960 Descending Washington Center
09:36 37.2644 -79.9369 119° Southeast 493 567 24,600 -1,140 Descending Washington Center
09:37 37.1869 -79.8231 130° Southeast 488 562 23,600 -840 Descending Washington Center
09:38 37.1058 -79.6961 129° Southeast 478 550 23,000 -300 Descending Washington Center
09:39 37.0208 -79.5617 128° Southeast 460 529 23,000 -600 Level Washington Center
09:40 36.9414 -79.4353 128° Southeast 460 529 21,900 -1,320 Descending Washington Center
09:41 36.8661 -79.3122 127° Southeast 460 529 20,400 -1,440 Descending Washington Center
09:42 36.7883 -79.1917 129° Southeast 460 529 19,100 -1,380 Descending Washington Center
09:43 36.7186 -79.0847 129° Southeast 455 524 17,800 -1,440 Descending Washington Center
09:44 36.6806 -79.0314 132° Southeast 428 493 17,200 -1,800 Descending Washington Center
09:44 36.6231 -78.9978 155° Southeast 413 475 16,000 -1,560 Descending Washington Center
09:45 36.5483 -78.9789 169° South 351 404 15,200 -1,380 Descending Washington Center
09:45 36.5278 -78.9728 167° South 365 420 14,600 -2,520 Descending Washington Center
09:46 36.4489 -78.9539 169° South 341 392 12,400 -2,400 Descending Washington Center
09:47 36.3464 -78.8878 153° Southeast 353 406 9,900 -1,860 Descending Washington Center
09:48 36.2956 -78.8469 147° Southeast 295 339 8,900 -1,320 Descending Washington Center
09:48 36.2772 -78.8281 140° Southeast 325 374 8,600 -1,500 Descending Washington Center
09:49 36.2303 -78.7900 147° Southeast 281 323 7,400 -1,500 Descending Washington Center
09:49 36.2181 -78.7792 144° Southeast 296 341 7,100 -1,500 Descending Washington Center
09:50 36.1400 -78.7325 154° Southeast 286 329 5,600 -1,920 Descending Washington Center
09:51 36.0697 -78.7039 162° South 281 323 3,300 -1,800 Descending Washington Center
09:52 35.9992 -78.6933 173° South 248 285 2,000 -720 Descending Washington Center
09:53 35.9403 -78.7064 190° South 233 268 1,900 -480 Descending Washington Center
09:55 35.8931 -78.7611 223° Southwest 139 160 900 -780 Descending Washington Center
09:57 35.8776 -78.7875 90° East  Level Estimated
10:04 35.8776 -78.7875 90° East  Level Estimated